Location: Boiro
(42.6475°N, 8.8834°W)
Time: 03:46:21
(UTC+01:00)

Explorer 11/Cluster Stage 4 - Pass Details

Date: 01 December 2021
Orbit: 467 x 1255 km, 28.8° (Epoch: 20 January)

Event Time Altitude Azimuth Distance (km) Brightness Sun altitude
Rises 10:16:18 0° 256° (WSW) 4,194 10.0 12.3°
Reaches altitude 10° 10:22:03 10° 225° (SW) 3,187 9.8 13.0°
Maximum altitude 10:24:09 11° 210° (SSW) 3,064 9.9 13.3°
Drops below altitude 10° 10:26:13 10° 195° (SSW) 3,110 10.2 13.5°
Sets 10:31:37 0° 163° (SSE) 3,914 11.5 14.2°
